Tracking 18785 objects as of 25-July-2017
HD Live streaming from Space Station
objects crossing your sky now
MAYAK may become the brightest orbital object in the night sky!
Where is MAYAK now?
How to spot MAYAK

SL-8 R/B

Track SL-8 R/B now!
10-day predictions


NORAD ID: 22308
Int'l Code: 1993-001B
Perigee: 968.0 km
Apogee: 1,004.6 km
Inclination: 82.9 °
Period: 104.7 minutes
Semi major axis: 7357 km
RCS: 5.4041 m2 (large)
Launch date: January 12, 1993
Source: Commonwealth of Independent States (former USSR) (CIS)
Launch site: PLESETSK MISSILE AND SPACE COMPLEX (PKMTR)

Note: This is a ROCKET BODY
Your satellite tracking list
Your tracking list is empty





NASA's NSSDC Master Catalog

Two Line Element Set (TLE):
1 22308U 93001B   17206.22255601 +.00000065 +00000-0 +51401-4 0  9993
2 22308 082.9365 140.0181 0024877 095.8171 011.6067 13.75696670231269
Source of the keplerian elements: AFSPC